AirNav   TITAN Aviation Fuels
 
 1208 users online  

N71 Donegal Springs Airpark
Mount Joy/Marietta, Pennsylvania, USA

GOING TO MOUNT JOY/MARIETTA?


FAA INFORMATION EFFECTIVE 16 JUNE 2022

Location

FAA Identifier: N71
Lat/Long: 40-05-31.9440N 076-34-27.6790W
40-05.532400N 076-34.461317W
40.0922067,-76.5743553
(estimated)
Elevation: 458 ft. / 140 m (estimated)
Variation: 09W (1975)
From city: 3 miles SW of central business district of the associated city
Time zone: UTC -4 (UTC -5 during Standard Time)
Zip code: 17547

Airport Operations

Airport use: Open to the public
Activation date: 05/1947
Control tower: no
ARTCC: NEW YORK CENTER
FSS: WILLIAMSPORT FLIGHT SERVICE STATION
NOTAMs facility: IPT (NOTAM-D service available)
Attendance: MON-FRI 0800-1630, ALL SAT UNATTND, ALL SUN UNATTND
Wind indicator: yes
Segmented circle: no
Lights: ACTVT MIRL RWY 10/28 - CTAF.
Beacon: white-green (lighted land airport)
ACTVT ROTG BCN - CTAF

Airport Communications

CTAF/UNICOM: 122.8
HARRISBURG APPROACH: 126.45
HARRISBURG DEPARTURE: 126.45
CLEARANCE DELIVERY: 127.05
WX ASOS at MDT (11 nm NW): PHONE 717-944-1372
WX ASOS at LNS (13 nm E): 125.675 (717-569-8860)
WX ASOS at CXY (15 nm NW): PHONE 717-770-0880
WX ASOS at THV (17 nm SW): 119.275 (717-792-5529)
WX AWOS-2 at 9D4 (19 nm NE): 118.45 (717-866-2906)

Airport Services

Fuel available: 100LL
Parking: tiedowns
Airframe service: MAJOR
Powerplant service: NONE
Bottled oxygen: NONE
Bulk oxygen: NONE

Runway Information

Runway 10/28

Dimensions: 3250 x 50 ft. / 991 x 15 m
Surface: asphalt, in fair condition
Weight bearing capacity: 
Single wheel: 12.5
Runway edge lights: medium intensity
RUNWAY 10  RUNWAY 28
Latitude: 40-05.508200N40-05.557200N
Longitude: 076-34.809183W076-34.115083W
Elevation: 458.0 ft.400.0 ft.
Traffic pattern: leftleft
Runway heading: 094 magnetic, 085 true274 magnetic, 265 true
Displaced threshold: 300 ft.
RWY 10 DTHR BAR 300 FT FM RWY END, DTHR LGTS 300 FT FM RWY END.
no
Markings: nonprecision, in good conditionnonprecision, in good condition
Touchdown point: yes, no lightsyes, no lights
Obstructions: 29 ft. pole, 606 ft. from runway, 244 ft. left of centerline, 14:1 slope to clear
RWY 10; 15 FT ROAD 16 FT FM RWY END.
none

Airport Ownership and Management from official FAA records

Ownership: Privately-owned
Owner: N71, INC.
186 AIRPORT RD
MARIETTA, PA 17547
Phone 717-928-4360
Manager: ANDREW STERLING
186 AIRPORT RD
MARIETTA, PA 17547
Phone 717-928-4360

Airport Operational Statistics

Aircraft based on the field: 14
Single engine airplanes: 14
    
Aircraft operations: avg 33/day *
50% local general aviation
42% transient general aviation
8% military
* for 12-month period ending 30 December 2020

Additional Remarks

FOR CD CTC HARRISBURG APCH AT 800-932-0712.

Instrument Procedures

NOTE: All procedures below are presented as PDF files. If you need a reader for these files, you should download the free Adobe Reader.

NOT FOR NAVIGATION. Please procure official charts for flight.
FAA instrument procedures published for use from 16 June 2022 at 0901Z to 14 July 2022 at 0900z.

 
IAPs - Instrument Approach Procedures
RNAV (GPS) RWY 28   download (180KB)
VOR RWY 28   download (208KB)
NOTE: Special Take-Off Minimums/Departure Procedures apply   download (149KB)

Other nearby airports with instrument procedures:

KMDT - Harrisburg International Airport (11 nm NW)
58N - Reigle Field Airport (12 nm N)
KLNS - Lancaster Airport (13 nm E)
KCXY - Capital City Airport (15 nm NW)
08N - Keller Brothers Airport (16 nm NE)
KTHV - York Airport (17 nm SW)
9D4 - Deck Airport (19 nm NE)
 
Loc | Ops | Rwys | IFR | FBO | Links
Com | Nav | Svcs | Stats | Notes
Area around N71 (Donegal Springs Airpark)
 
Road maps at: MapQuest Bing Google
 
Aerial photo
WARNING: Photo may not be current or correct
Aerial photo of N71 (Donegal Springs Airpark)
Looking east.

Do you have a better or more recent aerial photo of Donegal Springs Airpark that you would like to share? If so, please send us your photo.

 
Sectional chart

 
Airport distance calculator
Flying to Donegal Springs Airpark? Find the distance to fly.

From to N71

Sunrise and sunset
Times for 27-Jun-2022
 Local
(UTC-4)
 Zulu
(UTC)
Morning civil twilight05:0709:07
Sunrise05:4009:40
Sunset20:3900:39
Evening civil twilight21:1101:11

Current date and time
Zulu (UTC)  28-Jun-2022 00:38:25
Local (UTC-4)  27-Jun-2022 20:38:25
 
METAR
KMDT 
11nm NW 
272356Z 31011KT 10SM FEW050 26/11 A2999 RMK AO2 SLP154 T02610111 10278 20256 53017 $
KLNS 
13nm E 
272353Z 26004KT 10SM CLR 26/16 A2999 RMK AO2 SLP152 T02610156 10278 20250 53015
KCXY 
15nm NW 
272356Z 29008KT 10SM CLR 27/11 A3000 RMK AO2 SLP158 T02720111 10306 20272 53018
KTHV 
18nm SW 
272353Z AUTO 31007KT 10SM CLR 26/12 A3001 RMK AO2 SLP161 T02560117 10278 20250 53014
KMUI 
19nm N 
272356Z 27007KT 10SM FEW060 SCT200 25/11 A2998 RMK AO2A SLP152 T02510113 10276 20251 52017
TAF
KMDT 
11nm NW 
272200Z 2722/2818 30009KT P6SM FEW050 BKN200 FM280100 32005KT P6SM SKC FM281500 31006KT P6SM SCT250
KLNS 
13nm E 
272052Z 2721/2818 28010KT P6SM BKN180 OVC250 FM272200 30009KT P6SM BKN220 FM280000 32006KT P6SM SKC FM281500 31006KT P6SM SCT250
KMUI 
19nm N 
271900Z 2719/2901 30012KT 9999 SCT035 BKN140 QNH2993INS BECMG 2823/2824 VRB06KT 9999 FEW045 QNH2992INS TX28/2720Z TN11/2810Z LAST NO AMDS AFT 2805 NEXT 2811
NOTAMs
Click for the latest NOTAMs
NOTAMs are issued by the DoD/FAA and will open in a separate window not controlled by AirNav.

 

 
 

FBO, Fuel Providers, and Aircraft Ground Support

  
 Business Name 
 
 Contact 
 
 Services / Description 
 
Fuel Prices
 
Comments
  
N71, Inc. 717-928-4360
no information available

If you are affiliated with N71, Inc. and would like to show here your services, contact info, web link, logo, and more, click here
100LL
SS $7.20 
 Updated 27-Jun-2022
 
   2 read write
SS=Self service
Update Fuel Prices
 

Would you like to see your business listed on this page?

 If your business provides an interesting product or service to pilots, flight crews, aircraft, or users of the Donegal Springs Airpark, you should consider listing it here.  To start the listing process, click on the button below
 
Add a business
 

Other Pages about Donegal Springs Airpark

flyn71.com/index.html
 
Update a link
 
Copyright © AirNav, LLC. All rights reserved. Privacy Policy  Contact